Home   Weather   Post Falls   Past weeks

Flag for USA Past Weather in Post Falls, Idaho, USA — Yesterday and Last 2 Weeks

Now
59 °F

Sunny.


Feels Like: 59 °F
Forecast: 55 / 80 °F
Wind: 5 mph from Southwest

Location: Coeur d'Alene Weather Reporting System

Current Time: Jul 21, 2017 at 7:50:05 am

Latest Report: Jul 21, 2017 at 6:56 am


Visibility: 10 mi

Pressure: 30.13 "Hg (27.85 "Hg at 664m altitude)

Humidity: 56%

Dew Point: 43 °F

Location of Post FallsLocation

Past Weather in Post Falls — Graph

°F

Post Falls Temperature Yesterday

Maximum temperature yesterday: 80 °F (at 2:56 pm)
Minimum temperature yesterday: 60 °F (at 5:56 am)
Average temperature yesterday: 69 °F

High & Low Weather Summary for the Past Weeks

 TemperatureHumidityPressure
High98 °F (Jul 6, 3:56 pm)83% (Jul 8, 4:56 am)30.15 "Hg (Jul 8, 4:56 am)
Low51 °F (Jul 13, 4:56 am)17% (Jul 6, 3:56 pm)29.85 "Hg (Jul 10, 5:56 pm)
Average72 °F46%30.01 "Hg
* Reported Jul 6 5:56 am — Jul 21 5:56 am, Post Falls. Weather by CustomWeather, © 2017

Note: Actual official high and low records may vary slightly from our data, if they occured in-between our weather recording intervals... More about our weather records

Advertising

Post Falls Weather History for the Previous 24 Hours

Scroll right to see more
 ConditionsComfort  
Time TempWeatherWind HumidityBarometerVisibility
5:56 am
Fri, Jul 21
56 °FSunny.8 mph65%30.10 "Hg10 mi
4:56 am59 °FClear.9 mph64%30.07 "Hg10 mi
3:56 am59 °FClear.9 mph67%30.06 "Hg10 mi
2:56 am60 °FClear.7 mph65%30.05 "Hg10 mi
1:56 am60 °FClear.8 mph62%30.05 "Hg10 mi
12:56 am57 °FClear.7 mph69%30.06 "Hg10 mi
11:56 pm
Thu, Jul 20
61 °FClear.No wind48%30.05 "Hg10 mi
10:56 pm61 °FClear.8 mph50%30.04 "Hg10 mi
9:56 pm61 °FClear.7 mph52%30.04 "Hg10 mi
8:56 pm64 °FClear.6 mph50%30.03 "Hg10 mi
7:56 pm71 °FSunny.12 mph36%30.02 "Hg10 mi
6:56 pm75 °FSunny.10 mph34%30.01 "Hg10 mi
5:56 pm78 °FSunny.13 mph29%30.00 "Hg10 mi
4:56 pm78 °FSunny.15 mph29%30.01 "Hg10 mi
3:56 pm78 °FSunny.12 mph28%30.01 "Hg10 mi
2:56 pm80 °FPassing clouds.15 mph28%30.03 "Hg10 mi
1:56 pm76 °FOvercast.13 mph36%30.04 "Hg10 mi
12:56 pm77 °FPassing clouds.10 mph33%30.04 "Hg10 mi
11:56 am76 °FSunny.14 mph36%30.05 "Hg10 mi
10:56 am74 °FPassing clouds.14 mph38%30.06 "Hg10 mi
9:56 am72 °FSunny.12 mph41%30.04 "Hg10 mi
8:56 am69 °FSunny.13 mph45%30.04 "Hg10 mi
7:56 am67 °FSunny.10 mph47%30.03 "Hg10 mi
Weather by CustomWeather, © 2017

See weather overviewHow to use our weather pages